When you browse on this site, cookies collect data to enhance your experience and personalize the content and advertising you see.
Visit our Privacy Policy to learn more. By continuing to use the site, you agree to this use of cookies and data.
  • In Portugal
  • List of Countries
  • For 7 days
  • Water Temperature
  • Weather Map
  • Weather Widgets
  • user-avatar
    Login

    Hourly Weather Labé

    Today, 28 February, Friday

    Time Temperature Precipitation Wind Pressure Humidity
    00:00 +21°C° 0 mm 1 mps 672 mmHg 26%
    01:00 +21°C° 0 mm 1 mps 671 mmHg 27%
    02:00 +20°C° 0 mm 1 mps 671 mmHg 28%
    03:00 +19°C° 0 mm 1 mps 671 mmHg 36%
    04:00 +19°C° 0 mm 1 mps 671 mmHg 43%
    05:00 +18°C° 0 mm 1 mps 671 mmHg 50%
    06:00 +19°C° 0 mm 0 mps 672 mmHg 46%
    07:00 +22°C° 0 mm 0 mps 673 mmHg 41%
    08:00 +25°C° 0 mm 0 mps 675 mmHg 36%
    09:00 +30°C° 0 mm 1 mps 675 mmHg 28%
    10:00 +32°C° 0 mm 1 mps 675 mmHg 20%
    11:00 +36°C° 0 mm 2 mps 676 mmHg 11%
    12:00 +36°C° 0 mm 1 mps 675 mmHg 11%
    13:00 +39°C° 0 mm 1 mps 674 mmHg 10%
    14:00 +40°C° 0 mm 1 mps 674 mmHg 10%
    15:00 +37°C° 0 mm 1 mps 673 mmHg 11%
    16:00 +36°C° 0 mm 1 mps 673 mmHg 12%
    17:00 +34°C° 0 mm 1 mps 672 mmHg 14%
    18:00 +31°C° 0 mm 1 mps 672 mmHg 17%
    19:00 +28°C° 0 mm 1 mps 672 mmHg 21%
    20:00 +25°C° 0 mm 1 mps 672 mmHg 25%
    21:00 +24°C° 0 mm 1 mps 672 mmHg 26%
    22:00 +23°C° 0 mm 1 mps 672 mmHg 27%
    23:00 +22°C° 0 mm 1 mps 672 mmHg 27%

    Tomorrow, 29 February, Saturday

    Time Temperature Precipitation Wind Pressure Humidity
    00:00 +22°C° 0 mm 1 mps 672 mmHg 29%
    01:00 +21°C° 0 mm 1 mps 672 mmHg 30%
    02:00 +20°C° 0 mm 1 mps 671 mmHg 31%
    03:00 +20°C° 0 mm 1 mps 671 mmHg 37%
    04:00 +19°C° 0 mm 1 mps 671 mmHg 42%
    05:00 +18°C° 0 mm 1 mps 670 mmHg 47%
    06:00 +21°C° 0 mm 1 mps 671 mmHg 41%
    07:00 +24°C° 0 mm 1 mps 673 mmHg 36%
    08:00 +25°C° 0 mm 0 mps 674 mmHg 31%
    09:00 +30°C° 0 mm 1 mps 674 mmHg 24%
    10:00 +32°C° 0 mm 2 mps 674 mmHg 17%
    11:00 +35°C° 0 mm 3 mps 675 mmHg 11%
    12:00 +36°C° 0 mm 3 mps 674 mmHg 10%
    13:00 +37°C° 0 mm 3 mps 673 mmHg 9%
    14:00 +38°C° 0 mm 2 mps 672 mmHg 9%
    15:00 +37°C° 0 mm 2 mps 672 mmHg 9%
    16:00 +36°C° 0 mm 2 mps 672 mmHg 10%
    17:00 +35°C° 0 mm 2 mps 671 mmHg 11%
    18:00 +31°C° 0 mm 1 mps 671 mmHg 13%
    19:00 +27°C° 0 mm 1 mps 671 mmHg 16%
    20:00 +24°C° 0 mm 1 mps 671 mmHg 19%
    21:00 +21°C° 0 mm 0 mps 671 mmHg 20%
    22:00 +21°C° 0 mm 0 mps 671 mmHg 21%
    23:00 +20°C° 0 mm 0 mps 671 mmHg 21%

    Day after tomorrow, 1 March, Sunday

    Time Temperature Precipitation Wind Pressure Humidity
    00:00 +21°C° 0 mm 1 mps 671 mmHg 22%
    01:00 +21°C° 0 mm 1 mps 670 mmHg 23%
    02:00 +20°C° 0 mm 1 mps 670 mmHg 25%
    03:00 +20°C° 0 mm 1 mps 670 mmHg 28%
    04:00 +19°C° 0 mm 1 mps 670 mmHg 32%
    05:00 +16°C° 0 mm 0 mps 669 mmHg 36%
    06:00 +19°C° 0 mm 0 mps 671 mmHg 33%
    07:00 +22°C° 0 mm 0 mps 672 mmHg 30%
    08:00 +25°C° 0 mm 0 mps 673 mmHg 27%
    09:00 +30°C° 0 mm 1 mps 674 mmHg 20%
    10:00 +32°C° 0 mm 2 mps 674 mmHg 14%
    11:00 +36°C° 0 mm 3 mps 674 mmHg 8%
    12:00 +37°C° 0 mm 3 mps 673 mmHg 8%
    13:00 +38°C° 0 mm 2 mps 673 mmHg 7%
    14:00 +39°C° 0 mm 2 mps 672 mmHg 7%
    15:00 +38°C° 0 mm 2 mps 672 mmHg 8%
    16:00 +37°C° 0 mm 2 mps 671 mmHg 9%
    17:00 +36°C° 0 mm 2 mps 671 mmHg 9%
    18:00 +31°C° 0 mm 1 mps 671 mmHg 12%
    19:00 +28°C° 0 mm 1 mps 671 mmHg 15%
    20:00 +24°C° 0 mm 1 mps 671 mmHg 17%
    21:00 +23°C° 0 mm 1 mps 671 mmHg 22%
    22:00 +22°C° 0 mm 1 mps 671 mmHg 27%
    23:00 +22°C° 0 mm 1 mps 671 mmHg 31%

    2 March, Monday

    Time Temperature Precipitation Wind Pressure Humidity
    00:00 +21°C° 0 mm 1 mps 671 mmHg 36%
    01:00 +21°C° 0 mm 1 mps 671 mmHg 40%
    02:00 +20°C° 0 mm 1 mps 671 mmHg 45%
    03:00 +19°C° 0 mm 1 mps 670 mmHg 49%
    04:00 +19°C° 0 mm 1 mps 670 mmHg 53%
    05:00 +18°C° 0 mm 1 mps 670 mmHg 56%
    06:00 +21°C° 0 mm 1 mps 672 mmHg 48%
    07:00 +22°C° 0 mm 0 mps 673 mmHg 40%
    08:00 +26°C° 0 mm 0 mps 674 mmHg 32%
    09:00 +30°C° 0 mm 1 mps 674 mmHg 25%
    10:00 +32°C° 0 mm 2 mps 675 mmHg 17%
    11:00 +35°C° 0 mm 3 mps 675 mmHg 9%
    12:00 +36°C° 0 mm 3 mps 674 mmHg 9%
    13:00 +37°C° 0 mm 3 mps 673 mmHg 8%
    14:00 +38°C° 0 mm 3 mps 672 mmHg 7%
    15:00 +37°C° 0 mm 2 mps 672 mmHg 8%
    16:00 +36°C° 0 mm 2 mps 672 mmHg 8%
    17:00 +35°C° 0 mm 2 mps 672 mmHg 9%
    18:00 +31°C° 0 mm 2 mps 672 mmHg 11%
    19:00 +28°C° 0 mm 1 mps 671 mmHg 13%
    20:00 +24°C° 0 mm 1 mps 671 mmHg 15%
    21:00 +23°C° 0 mm 1 mps 671 mmHg 18%
    22:00 +22°C° 0 mm 1 mps 671 mmHg 21%
    23:00 +21°C° 0 mm 1 mps 672 mmHg 24%

    3 March, Tuesday

    Time Temperature Precipitation Wind Pressure Humidity
    00:00 +20°C° 0 mm 1 mps 671 mmHg 27%
    01:00 +20°C° 0 mm 1 mps 671 mmHg 30%
    02:00 +19°C° 0 mm 1 mps 671 mmHg 33%
    03:00 +19°C° 0 mm 1 mps 671 mmHg 36%
    04:00 +19°C° 0 mm 1 mps 671 mmHg 39%
    05:00 +18°C° 0 mm 1 mps 671 mmHg 43%
    06:00 +21°C° 0 mm 1 mps 672 mmHg 38%
    07:00 +24°C° 0 mm 1 mps 673 mmHg 34%
    08:00 +25°C° 0 mm 0 mps 674 mmHg 29%
    09:00 +30°C° 0 mm 1 mps 675 mmHg 22%
    10:00 +32°C° 0 mm 2 mps 675 mmHg 15%
    11:00 +36°C° 0 mm 3 mps 675 mmHg 8%
    12:00 +37°C° 0 mm 3 mps 674 mmHg 8%
    13:00 +37°C° 0 mm 3 mps 674 mmHg 7%
    14:00 +38°C° 0 mm 2 mps 673 mmHg 7%
    15:00 +37°C° 0 mm 2 mps 673 mmHg 7%
    16:00 +37°C° 0 mm 2 mps 672 mmHg 8%
    17:00 +36°C° 0 mm 2 mps 672 mmHg 9%
    18:00 +31°C° 0 mm 1 mps 672 mmHg 11%
    19:00 +27°C° 0 mm 1 mps 672 mmHg 14%
    20:00 +21°C° 0 mm 0 mps 671 mmHg 17%
    21:00 +23°C° 0 mm 1 mps 672 mmHg 20%
    22:00 +22°C° 0 mm 1 mps 672 mmHg 23%
    23:00 +21°C° 0 mm 1 mps 672 mmHg 26%

    4 March, Wednesday

    Time Temperature Precipitation Wind Pressure Humidity
    00:00 +20°C° 0 mm 1 mps 672 mmHg 29%
    01:00 +20°C° 0 mm 1 mps 671 mmHg 32%
    02:00 +19°C° 0 mm 1 mps 671 mmHg 35%
    03:00 +19°C° 0 mm 1 mps 671 mmHg 38%
    04:00 +18°C° 0 mm 1 mps 671 mmHg 40%
    05:00 +18°C° 0 mm 1 mps 671 mmHg 42%
    06:00 +20°C° 0 mm 1 mps 672 mmHg 39%
    07:00 +23°C° 0 mm 1 mps 673 mmHg 36%
    08:00 +26°C° 0 mm 1 mps 674 mmHg 34%
    09:00 +29°C° 0 mm 1 mps 675 mmHg 26%
    10:00 +32°C° 0 mm 2 mps 675 mmHg 18%
    11:00 +36°C° 0 mm 3 mps 675 mmHg 10%
    12:00 +36°C° 0 mm 3 mps 674 mmHg 9%
    13:00 +37°C° 0 mm 3 mps 674 mmHg 8%
    14:00 +38°C° 0 mm 3 mps 673 mmHg 7%
    15:00 +37°C° 0 mm 3 mps 672 mmHg 8%
    16:00 +36°C° 0 mm 2 mps 672 mmHg 8%
    17:00 +35°C° 0 mm 2 mps 672 mmHg 9%
    18:00 +31°C° 0 mm 1 mps 672 mmHg 11%
    19:00 +28°C° 0 mm 1 mps 671 mmHg 14%
    20:00 +24°C° 0 mm 1 mps 671 mmHg 16%
    21:00 +23°C° 0 mm 1 mps 671 mmHg 18%
    22:00 +22°C° 0 mm 1 mps 672 mmHg 20%
    23:00 +22°C° 0 mm 1 mps 672 mmHg 22%
    Show more